Weather WX

World > North America > United States > Pennsylvania

Center City, Pennsylvania Regional Weather

Lat: 39.98N, Lon: 75.14W
Wx Zone: PAZ071
Warning FLW WEATHER ALERT - (More Info. Click Here) Warning
Feedback

Center City, PA Regional Weather

Expires:201906270000;;128289
ASUS41 KOKX 262313
RWROKX

Regional Weather Roundup
National Weather Service New York NY
700 PM EDT WED JUN 26 2019

Note: "FAIR" indicates few or no clouds below 12,000 feet with no
significant weather and/or obstructions to visibility.


PAZ047>061-062-071-270000-
Eastern Pennsylvania
  
CITY           SKY/WX    TMP DP  RH WIND       PRES   REMARKS
Philadelphia   FAIR      89  61  38 W10       30.03R                  
Allentown      LGT RAIN  82  64  54 NW12      30.02R                  
Scranton       FAIR      79  64  60 SW10      30.03S                  
$$


SKY/WX - Weather  TMP - Temperature  DP - Dew Point  RH - Relative Humidity
WIND - Wind Direction/Speed PRES - Barometric Pressure VSB - Visibility
WCI - Wind Chill Index E13G22 Wind - East Wind 13 mph/Gusts of 22 mph